Torna al catalogo

HAWK-2C

AttivoScienzaSSO
NORAD 47502·PAYLOAD·🇺🇸 United States

Lanciato Jan 24, 2021 da Cape Canaveral Space Force Station

Loading…

Prossimi Passaggi (prossime 24 ore)

TLE

AggiornatoSource: Space-Track

Epoca: Sep 14, 2026, 13:58 UTC

1 47502U 21006CT  26257.58217437  .00005046  00000-0  14792-3 0  9997
2 47502  97.2195 300.1299 0005267 229.4560 130.6226 15.35625431313210

Traccia HAWK-2C in tempo reale con AllMySat

Download on the App Store